When you browse on this site, cookies collect data to enhance your experience and personalize the content and advertising you see.
Visit our Privacy Policy to learn more. By continuing to use the site, you agree to this use of cookies and data.
  • Em Portugal
  • Lista de países
  • Para 7 dias
  • Temperatura da água
  • Mapa do tempo
  • Widgets de tempo
  • user-avatar
    Iniciar Sessão

    Previsão horária em Ischgl

    Hoje, 23 Setembro, Segunda-feira

    Tempo Temperatura Precipitação Vento Pressão Humidade
    00:00 +5°C° 0 mm 1 m/s 573 mmHg 92%
    01:00 +5°C° 0 mm 1 m/s 573 mmHg 94%
    02:00 +6°C° 0.2 mm 1 m/s 573 mmHg 94%
    03:00 +6°C° 0.2 mm 1 m/s 573 mmHg 94%
    04:00 +6°C° 0.2 mm 1 m/s 573 mmHg 94%
    05:00 +6°C° 0.8 mm 1 m/s 573 mmHg 95%
    06:00 +6°C° 0.8 mm 1 m/s 573 mmHg 96%
    07:00 +5°C° 0 mm 2 m/s 574 mmHg 95%
    08:00 +4°C° 2.2 mm 2 m/s 574 mmHg 96%
    09:00 +3°C° 2.2 mm 2 m/s 573 mmHg 97%
    10:00 +1°C° 2.2 mm 3 m/s 573 mmHg 97%
    11:00 +2°C° 3.3 mm 2 m/s 573 mmHg 97%
    12:00 +1°C° 3.3 mm 2 m/s 573 mmHg 97%
    13:00 +1°C° 0 mm 2 m/s 572 mmHg 96%
    14:00 +1°C° 0.4 mm 2 m/s 573 mmHg 95%
    15:00 +2°C° 0.4 mm 2 m/s 573 mmHg 94%
    16:00 +2°C° 0.4 mm 2 m/s 573 mmHg 93%
    17:00 +1°C° 0 mm 2 m/s 573 mmHg 94%
    18:00 +1°C° 0 mm 2 m/s 573 mmHg 95%
    19:00 -1°C° 0 mm 2 m/s 573 mmHg 96%
    20:00 +1°C° 0 mm 1 m/s 573 mmHg 96%
    21:00 0°C° 0 mm 1 m/s 573 mmHg 95%
    22:00 0°C° 0 mm 1 m/s 572 mmHg 94%
    23:00 -1°C° 0 mm 1 m/s 572 mmHg 93%

    Amanhã, 24 Setembro, Terça-feira

    Tempo Temperatura Precipitação Vento Pressão Humidade
    00:00 -1°C° 0 mm 1 m/s 572 mmHg 91%
    01:00 -1°C° 0 mm 1 m/s 572 mmHg 89%
    02:00 -1°C° 0 mm 1 m/s 572 mmHg 88%
    03:00 -2°C° 0 mm 0 m/s 572 mmHg 86%
    04:00 -2°C° 0 mm 0 m/s 572 mmHg 85%
    05:00 -1°C° 0 mm 1 m/s 572 mmHg 83%
    06:00 0°C° 0 mm 1 m/s 572 mmHg 81%
    07:00 +1°C° 0 mm 1 m/s 572 mmHg 79%
    08:00 +3°C° 0 mm 1 m/s 573 mmHg 75%
    09:00 +5°C° 0 mm 1 m/s 573 mmHg 71%
    10:00 +7°C° 0 mm 1 m/s 574 mmHg 67%
    11:00 +7°C° 0 mm 2 m/s 574 mmHg 64%
    12:00 +8°C° 0 mm 2 m/s 574 mmHg 60%
    13:00 +9°C° 0 mm 2 m/s 575 mmHg 56%
    14:00 +8°C° 0 mm 2 m/s 574 mmHg 60%
    15:00 +8°C° 0 mm 2 m/s 574 mmHg 64%
    16:00 +7°C° 0 mm 2 m/s 574 mmHg 68%
    17:00 +7°C° 0 mm 1 m/s 573 mmHg 74%
    18:00 +6°C° 0 mm 1 m/s 573 mmHg 79%
    19:00 +5°C° 0 mm 1 m/s 572 mmHg 85%
    20:00 +4°C° 0.1 mm 1 m/s 572 mmHg 86%
    21:00 +4°C° 0.1 mm 1 m/s 572 mmHg 87%
    22:00 +4°C° 0.1 mm 1 m/s 572 mmHg 88%
    23:00 +3°C° 0 mm 1 m/s 572 mmHg 88%

    Depois de amanhã, 25 Setembro, Quarta-feira

    Tempo Temperatura Precipitação Vento Pressão Humidade
    00:00 +3°C° 0 mm 1 m/s 571 mmHg 88%
    01:00 +2°C° 0 mm 1 m/s 571 mmHg 88%
    02:00 +2°C° 0 mm 1 m/s 570 mmHg 88%
    03:00 +1°C° 0 mm 0 m/s 570 mmHg 88%
    04:00 +1°C° 0 mm 0 m/s 570 mmHg 88%
    05:00 +2°C° 0.1 mm 0 m/s 570 mmHg 89%
    06:00 +2°C° 0.1 mm 0 m/s 571 mmHg 90%
    07:00 +3°C° 0.1 mm 0 m/s 571 mmHg 90%
    08:00 +2°C° 1.3 mm 0 m/s 571 mmHg 92%
    09:00 +2°C° 1.3 mm 0 m/s 571 mmHg 94%
    10:00 +2°C° 1.3 mm 0 m/s 571 mmHg 96%
    11:00 +3°C° 1.1 mm 1 m/s 571 mmHg 96%
    12:00 +2°C° 1.1 mm 1 m/s 570 mmHg 97%
    13:00 +2°C° 1.1 mm 1 m/s 570 mmHg 97%
    14:00 +2°C° 0.4 mm 1 m/s 570 mmHg 97%
    15:00 +2°C° 0.4 mm 1 m/s 570 mmHg 96%
    16:00 +3°C° 0.4 mm 1 m/s 570 mmHg 96%
    17:00 +3°C° 0.1 mm 1 m/s 570 mmHg 96%
    18:00 +2°C° 0.1 mm 1 m/s 570 mmHg 97%
    19:00 +2°C° 0.1 mm 1 m/s 571 mmHg 97%
    20:00 +2°C° 0.2 mm 1 m/s 571 mmHg 97%
    21:00 +2°C° 0.2 mm 1 m/s 571 mmHg 97%
    22:00 +2°C° 0.2 mm 1 m/s 571 mmHg 96%
    23:00 +2°C° 0.2 mm 1 m/s 571 mmHg 96%

    26 Setembro, Quinta-feira

    Tempo Temperatura Precipitação Vento Pressão Humidade
    00:00 +2°C° 0.2 mm 1 m/s 571 mmHg 96%
    01:00 +2°C° 0.2 mm 1 m/s 571 mmHg 96%
    02:00 +1°C° 0 mm 1 m/s 571 mmHg 95%
    03:00 +1°C° 0 mm 1 m/s 571 mmHg 95%
    04:00 0°C° 0 mm 1 m/s 571 mmHg 94%
    05:00 +1°C° 0.2 mm 1 m/s 571 mmHg 94%
    06:00 +1°C° 0.2 mm 1 m/s 572 mmHg 94%
    07:00 +1°C° 0.2 mm 1 m/s 572 mmHg 93%
    08:00 +2°C° 0.3 mm 1 m/s 573 mmHg 92%
    09:00 +3°C° 0.3 mm 1 m/s 573 mmHg 91%
    10:00 +4°C° 0.3 mm 1 m/s 574 mmHg 90%
    11:00 +5°C° 0 mm 1 m/s 575 mmHg 86%
    12:00 +6°C° 0 mm 1 m/s 575 mmHg 82%
    13:00 +7°C° 0 mm 1 m/s 576 mmHg 78%
    14:00 +7°C° 0 mm 1 m/s 576 mmHg 78%
    15:00 +7°C° 0 mm 1 m/s 576 mmHg 77%
    16:00 +7°C° 0 mm 1 m/s 576 mmHg 77%
    17:00 +6°C° 0 mm 1 m/s 575 mmHg 82%
    18:00 +4°C° 0 mm 1 m/s 575 mmHg 86%
    19:00 +3°C° 0 mm 1 m/s 574 mmHg 91%
    20:00 +2°C° 0 mm 1 m/s 574 mmHg 90%
    21:00 +2°C° 0 mm 1 m/s 574 mmHg 90%
    22:00 +1°C° 0 mm 0 m/s 574 mmHg 89%
    23:00 0°C° 0 mm 0 m/s 574 mmHg 89%

    27 Setembro, Sexta-feira

    Tempo Temperatura Precipitação Vento Pressão Humidade
    00:00 0°C° 0 mm 0 m/s 574 mmHg 88%
    01:00 0°C° 0 mm 0 m/s 574 mmHg 88%
    02:00 +1°C° 0 mm 1 m/s 574 mmHg 87%
    03:00 +1°C° 0 mm 1 m/s 574 mmHg 87%
    04:00 +1°C° 0 mm 1 m/s 574 mmHg 86%
    05:00 +1°C° 0 mm 0 m/s 574 mmHg 85%
    06:00 +1°C° 0 mm 0 m/s 574 mmHg 84%
    07:00 +2°C° 0 mm 0 m/s 575 mmHg 83%
    08:00 +4°C° 0 mm 0 m/s 576 mmHg 76%
    09:00 +7°C° 0 mm 1 m/s 577 mmHg 69%
    10:00 +9°C° 0 mm 1 m/s 578 mmHg 62%
    11:00 +10°C° 0 mm 1 m/s 578 mmHg 60%
    12:00 +11°C° 0 mm 1 m/s 579 mmHg 58%
    13:00 +12°C° 0 mm 1 m/s 579 mmHg 56%
    14:00 +11°C° 0 mm 1 m/s 578 mmHg 60%
    15:00 +11°C° 0 mm 1 m/s 578 mmHg 65%
    16:00 +11°C° 0 mm 1 m/s 578 mmHg 69%
    17:00 +9°C° 0.1 mm 1 m/s 577 mmHg 78%
    18:00 +7°C° 0.1 mm 1 m/s 576 mmHg 87%
    19:00 +5°C° 0.1 mm 1 m/s 575 mmHg 95%
    20:00 +4°C° 0.1 mm 0 m/s 576 mmHg 96%
    21:00 +4°C° 0.1 mm 0 m/s 576 mmHg 96%
    22:00 +4°C° 0.1 mm 0 m/s 576 mmHg 97%
    23:00 +4°C° 0.1 mm 0 m/s 576 mmHg 97%

    28 Setembro, Sábado

    Tempo Temperatura Precipitação Vento Pressão Humidade
    00:00 +4°C° 0.1 mm 0 m/s 576 mmHg 97%
    01:00 +4°C° 0.1 mm 0 m/s 576 mmHg 96%
    02:00 +3°C° 0.1 mm 0 m/s 576 mmHg 96%
    03:00 +3°C° 0.1 mm 0 m/s 575 mmHg 96%
    04:00 +3°C° 0.1 mm 0 m/s 575 mmHg 96%
    05:00 +3°C° 0.1 mm 0 m/s 576 mmHg 95%
    06:00 +4°C° 0.1 mm 0 m/s 576 mmHg 94%
    07:00 +4°C° 0.1 mm 0 m/s 576 mmHg 93%
    08:00 +5°C° 0.1 mm 0 m/s 577 mmHg 88%
    09:00 +7°C° 0.1 mm 1 m/s 577 mmHg 83%
    10:00 +8°C° 0.1 mm 1 m/s 578 mmHg 78%
    11:00 +9°C° 0.1 mm 1 m/s 578 mmHg 74%
    12:00 +9°C° 0.1 mm 1 m/s 578 mmHg 70%
    13:00 +9°C° 0.1 mm 2 m/s 579 mmHg 66%
    14:00 +10°C° 0 mm 1 m/s 578 mmHg 64%
    15:00 +11°C° 0 mm 1 m/s 578 mmHg 63%
    16:00 +11°C° 0 mm 1 m/s 578 mmHg 62%
    17:00 +9°C° 0 mm 1 m/s 577 mmHg 71%
    18:00 +7°C° 0 mm 1 m/s 576 mmHg 81%
    19:00 +3°C° 0 mm 0 m/s 575 mmHg 90%
    20:00 +4°C° 0 mm 1 m/s 575 mmHg 90%
    21:00 +4°C° 0 mm 1 m/s 575 mmHg 89%
    22:00 +3°C° 0 mm 2 m/s 575 mmHg 88%
    23:00 +3°C° 0 mm 2 m/s 575 mmHg 88%
    Mostrar mais